Préparation du vol

Réserver un ULM chez EFU                     Découvrir nos appareils                     Coordonnées de l'école

Available data for LFPN from the past hour

METAR
LFPN 151330Z AUTO 24003KT 3900 -SN BR OVC005/// ///TCU 02/01 Q0997 TEMPO 1500 -SNRA BKN004
TAF
TAF AMD LFPN 151329Z 1513/1521 22008KT 9999 BKN012 TEMPO 1513/1521 4000 -SNRA BKN008 PROB40 TEMPO 1513/1518 1500 -SN BKN003 PROB30 TEMPO 1518/1521 4000 -RA BKN008

Pour avoir des informations détaillée sur la météo à venir vous pouvez consulter Aeroweb

prevision des pluies

Nota : Heuro locale = heure CET

[table “3” not found /]

OLIVIA

Outil en Ligne Intégré de Visualisation d'Informations Aéronautiques

OLIVIA